Taurus 1
1 44530U 19059C   25063.80169730  .00011779  00000-0  22811-2 0  9991
2 44530  98.5934 198.8224 0009160 328.3663  31.6986 14.63436989289776
Duchifat 3
1 44854U 19089C   25063.80339444  .00045077  00000-0  12535-2 0  9994
2 44854  36.9464 245.9914 0005502  93.2920 266.8463 15.35874254288007
TO-108
1 44881U 19093C   25063.76227638  .00001962  00000-0  23462-3 0  9992
2 44881  97.8003 141.4291 0013840 183.9872 176.1235 14.85222975281708
FloripaSat 1
1 44885U 19093G   25063.80692222  .00008360  00000-0  73807-3 0  9993
2 44885  97.8191 151.3257 0011317 165.2186 194.9368 14.96585280282260
RS-44
1 44909U 19096E   25063.37605499  .00000020  00000-0  33141-4 0  9998
2 44909  82.5193 291.8812 0217722 162.6078 198.2635 12.79738837242252
UPMSat 2
1 46276U 20061E   25063.43392206  .00048942  00000-0  73219-3 0  9991
2 46276  97.2575 135.4872 0001038 186.1378 173.9864 15.54849325250302
SALSAT
1 46495U 20068K   25063.49587876  .00010588  00000-0  48829-3 0  9990
2 46495  97.8522  37.2476 0013755 131.5551 228.6865 15.20365502243762
CubeSX-Sirius-HSE
1 47951U 21022V   25063.85964305  .00088350  00000-0  12511-2 0  9995
2 47951  97.4302 331.8263 0003602 295.4334  64.6547 15.56185230218638
CubeSX-HSE
1 47952U 21022W   25063.83367186  .00098724  00000-0  13661-2 0  9991
2 47952  97.4301 331.9927 0003322 281.3746  78.7136 15.56773602218643
KSU-Cubesat
1 47954U 21022Y   25063.64081886  .00430076  00000-0  17575-2 0  9990
2 47954  97.4246 336.4956 0003872 141.5217 218.6330 15.85022027218635
GRBAlpha
1 47959U 21022AD  25063.79755813  .00092423  00000-0  12902-2 0  9998
2 47959  97.4290 332.1066 0003546 292.7660  67.3220 15.56558023217468
Orbicraft-Zorkiy
1 47960U 21022AE  25063.84934171  .00186422  00000-0  14995-2 0  9999
2 47960  97.4266 335.5699 0001069 182.4685 177.6572 15.70377284218350
TUBIN
1 48900U 21059X   25063.77904888  .00044238  00000-0  79675-3 0  9993
2 48900  97.6688 225.9449 0004996 238.5370 121.5392 15.49667927204991
LEDSAT
1 49069U 21073D   25063.77321782  .00049651  00000-0  99121-3 0  9994
2 49069  97.3993 142.2442 0012096  75.4066 284.8524 15.46605388196404
CUTE
1 49263U 21088D   25063.77814780  .00017130  00000-0  39853-3 0  9994
2 49263  97.4597 137.5044 0008817 227.3358 132.7147 15.42337909189483
TeikyoSat 4
1 49396U 21102B   25063.89675004  .00002919  00000-0  19886-3 0  9998
2 49396  97.4247 105.7831 0014555 103.9055 256.3793 15.06935539181982
Z-Sat
1 49399U 21102E   25063.84956052  .00006278  00000-0  35697-3 0  9991
2 49399  97.3950 108.2741 0020176  80.9506 279.4008 15.13047979182340
KOSEN 1
1 49402U 21102H   25063.39849712  .00009936  00000-0  48734-3 0  9990
2 49402  97.3856 110.5642 0017776  62.3070 297.9965 15.18168080182538
HO-113
1 50466U 21131B   25063.87866618  .00001010  00000-0  33081-3 0  9995
2 50466  98.5110 153.7285 0005095  74.2187 285.9563 14.40587809167521
IRIS-A
1 51044U 22002BN  25063.43732576  .00096527  00000-0  11167-2 0  9990
2 51044  97.3391 139.0164 0004216 184.7972 175.3246 15.61532563174561
Foresail-1
1 52766U 22057AL  25063.34647075  .00082849  00000-0  99111-3 0  9999
2 52766  97.5999 206.0568 0007104 270.9033  89.1409 15.60686075154587
SNUGLITE 2
1 52899U 22065F   25063.37309224  .00002441  00000-0  48795-3 0  9991
2 52899  98.1510 206.4075 0008363  63.1893 297.0163 14.62733881142270
IO-117
1 53106U 22080B   25051.21822557 -.00000003  00000-0  00000+0 0  9995
2 53106  70.1434 106.3440 0008542  48.0089 312.1297  6.42557744 61200
FO-118
1 54684U 22167C   25063.88408488  .04204732  25755-5  13990-2 0  9994
2 54684  97.5902 229.8006 0010765 288.8170  71.1953 16.25692025124710
UmKA 1 (RS40S)
1 57172U 23091G   25063.88526722  .00007743  00000-0  43506-3 0  9995
2 57172  97.5726 119.8149 0013757 311.2678  48.7367 15.13506720 92842
CubeBel-2 (EU11S)
1 57175U 23091K   25063.87313748  .00011538  00000-0  59516-3 0  9994
2 57175  97.5724 120.4335 0011834 321.9029  38.1365 15.16448948 92885
VERONIKA
1 58261U 23174F   25063.81835308  .00069087  00000-0  13410-2 0  9992
2 58261  97.4235 145.9317 0006072  33.9975 326.1663 15.47395684 73611
KAFASAT
1 58317U 23174BP  25063.45323924  .00250327  00000-0  18299-2 0  9999
2 58317  97.4098 149.3943 0005096 306.8574  53.2221 15.72472148 73836
ENSO
1 58470U 23185J   25063.80454378  .00044868  00000-0  99066-3 0  9991
2 58470  97.3856 136.6241 0008388  74.8021 285.4154 15.43704606 70042
EIRSAT-1
1 58472U 23185L   25063.83911939  .00060563  00000-0  11408-2 0  9990
2 58472  97.3846 137.4513 0006896  73.4210 286.7797 15.48293610 70108
SONATE-2
1 59112U 24043Q   25063.34239435  .00021765  00000-0  72983-3 0  9993
2 59112  97.4990 192.9785 0012214 100.7593 259.5023 15.30848983 55436
MO-122
1 60209U 24125G   25063.50616491  .00023041  00000-0  76127-3 0  9995
2 60209  97.2924 276.4384 0021837 123.0628 237.2715 15.31149569 37077
GRBBeta
1 60237U 24128C   25063.54132295  .00007002  00000-0  54867-3 0  9994
2 60237  61.9926  57.5797 0042901  35.4696 324.9233 15.01142533 35629
Curium One
1 60242U 24128H   25063.37853988  .00012252  00000-0  91094-3 0  9996
2 60242  61.9827  57.6386 0043117  30.3547 330.0027 15.02608324 35613
ROBUSTA-3A
1 60243U 24128J   25063.35432644  .00011002  00000-0  82937-3 0  9995
2 60243  61.9895  58.2534 0041462  28.3492 331.9842 15.02225683 35605
CatSat
1 60246U 24125J   25063.58104004  .00012753  00000-0  45990-3 0  9998
2 60246  97.2709 276.6981 0046641  79.8042 280.8453 15.27607384 35162
HYPERVIEW-1G (RS66S)
1 61772U 24199AP  25063.87579173  .00024733  00000-0  85354-3 0  9998
2 61772  97.3696 293.1971 0015293 172.6539 187.4928 15.29846220 62141
AO-123
1 61781U 24199AY  25063.82214256  .00010729  00000-0  41533-3 0  9992
2 61781  97.3704 292.8254 0016552 174.8083 185.3330 15.26234187 62119
ZIMSAT 2
1 61783U 24199BA  25063.82806702  .00035037  00000-0  11359-2 0  9998
2 61783  97.3692 293.2548 0016160 172.2198 187.9297 15.31780973 65299
POEM 4 (BGS ARPIT)
1 62461U 24253C   25063.72214634  .00217703  28056-4  72208-3 0  9997
2 62461  55.2168 309.7839 0008826 110.0852 250.1152 15.89943931 10108
HADES-R (SO-124)
1 62690U 25009CK  25063.69219693  .00035602  00000-0  16617-2 0  9999
2 62690  97.4173 145.4625 0002640  85.6474 274.5063 15.19741325  7382
